バロス彗星

C/2017 D2 ( Barros )

English version
Home page
Updated on August 6, 2017

---------------------------------------------------------------------

・ プロフィール

発見日 2017年2月23日
発見光度 17.4等
発見者 J. Barros (SONEAR Observatory at Oliveira)

・ 写真集

・ 軌道要素

Epoch 2017 July 26.0 TT = JDT 2457960.5
T 2017 July 14.53652 TT                                 MPCW
q   2.4858170            (2000.0)            P               Q
z  +0.0007613      Peri.  334.34149     +0.60947913     +0.75192076
 +/-0.0000223      Node   331.04088     -0.60815108     +0.24006660
e   0.9981076      Incl.   31.26591     -0.50861327     +0.61398958
From 121 observations 2017 Feb. 23-July 6, mean residual 0".5.

・ 星図

・ 光度変化

        m1 = 11.0 + 5 logΔ + 10.0 log r(t + 100)

---------------------------------------------------------------------

軌道要素はM.P.E.C. 2017-N58に掲載されたものです。
星図はステラナビゲータ Ver.10 (アストロアーツ) で作成したものです。
光度グラフはComet for Windowsで作成したものです。

---------------------------------------------------------------------

Copyright(C) Seiichi Yoshida (comet@aerith.net). All rights reserved.